timestamp,wind_dir_avg,wind_spd_avg,wind_spd_max_dir,wind_spd_gust,battery_voltage,lat,long
2022-12-24 00:04:00+00:00,128.0,5.08,125.0,6.23,12.41,47.59359,-54.27349
2022-12-24 00:14:00+00:00,136.0,4.43,143.0,5.03,12.41,47.59359,-54.27349
2022-12-24 00:24:00+00:00,142.0,5.34,144.0,5.92,12.41,47.59359,-54.27349
2022-12-24 00:34:00+00:00,139.0,4.0,146.0,4.87,12.41,47.59359,-54.27349
2022-12-24 00:44:00+00:00,147.0,4.7,147.0,5.06,12.41,47.59359,-54.27349
2022-12-24 00:54:00+00:00,139.0,4.73,144.0,5.32,12.41,47.59359,-54.27349
2022-12-24 01:04:00+00:00,136.0,3.74,140.0,4.34,12.41,47.59359,-54.27349
2022-12-24 01:14:00+00:00,134.0,5.63,133.0,6.47,12.33,47.59359,-54.27349
2022-12-24 01:24:00+00:00,132.0,4.47,127.0,5.26,12.33,47.59359,-54.27349
2022-12-24 01:34:00+00:00,127.0,4.93,129.0,5.48,12.33,47.59359,-54.27349
2022-12-24 01:44:00+00:00,130.0,4.31,134.0,5.32,12.33,47.59359,-54.27349
2022-12-24 01:54:00+00:00,112.0,3.53,127.0,5.88,12.33,47.59359,-54.27349
2022-12-24 02:04:00+00:00,127.0,4.04,118.0,4.54,12.33,47.59359,-54.27349
2022-12-24 02:14:01+00:00,121.0,5.35,121.0,6.74,12.33,47.59359,-54.27349
2022-12-24 02:24:01+00:00,136.0,4.58,142.0,5.12,12.33,47.59359,-54.27349
2022-12-24 02:34:01+00:00,131.0,4.2,133.0,5.12,12.33,47.59359,-54.27349
2022-12-24 02:44:01+00:00,133.0,4.43,132.0,5.56,12.33,47.59359,-54.27349
2022-12-24 02:54:01+00:00,134.0,4.54,141.0,5.37,12.33,47.59359,-54.27349
2022-12-24 03:04:01+00:00,121.0,3.75,136.0,5.34,12.33,47.59359,-54.27349
2022-12-24 03:14:00+00:00,104.0,3.65,116.0,6.58,12.33,47.59359,-54.27349
2022-12-24 03:24:00+00:00,104.0,3.28,104.0,5.39,12.33,47.59359,-54.27349
2022-12-24 03:34:00+00:00,123.0,5.36,130.0,6.5,12.33,47.59359,-54.27349
2022-12-24 03:44:00+00:00,135.0,6.63,131.0,8.94,12.33,47.59359,-54.27349
2022-12-24 03:54:00+00:00,139.0,5.28,143.0,6.19,12.33,47.59359,-54.27349
2022-12-24 04:04:00+00:00,129.0,5.77,130.0,6.58,12.33,47.59359,-54.27349
2022-12-24 04:14:00+00:00,134.0,5.95,126.0,6.98,12.33,47.59359,-54.27349
2022-12-24 04:24:00+00:00,135.0,5.04,140.0,6.16,12.33,47.59359,-54.27349
2022-12-24 04:34:00+00:00,142.0,6.24,144.0,7.09,12.33,47.59359,-54.27349
2022-12-24 04:44:00+00:00,139.0,5.87,143.0,7.09,12.33,47.59359,-54.27349
2022-12-24 04:54:00+00:00,139.0,5.84,140.0,6.83,12.33,47.59359,-54.27349
2022-12-24 05:04:00+00:00,144.0,6.58,148.0,7.61,12.33,47.59359,-54.27349
2022-12-24 05:14:00+00:00,151.0,6.65,156.0,7.42,12.33,47.59359,-54.27349
2022-12-24 05:24:00+00:00,150.0,7.85,152.0,9.54,12.33,47.59359,-54.27349
2022-12-24 05:34:00+00:00,145.0,7.78,134.0,8.76,12.33,47.59359,-54.27349
2022-12-24 05:44:00+00:00,151.0,7.08,152.0,8.2,12.33,47.59359,-54.27349
2022-12-24 05:54:00+00:00,147.0,7.01,151.0,7.93,12.33,47.59359,-54.27349
2022-12-24 06:04:00+00:00,151.0,7.82,148.0,9.28,12.33,47.59359,-54.27349
2022-12-24 06:14:00+00:00,163.0,7.73,150.0,8.99,12.25,47.59359,-54.27349
2022-12-24 06:24:00+00:00,167.0,6.74,154.0,7.89,12.25,47.59359,-54.27349
2022-12-24 06:34:00+00:00,150.0,10.64,135.0,13.57,12.25,47.59359,-54.27349
2022-12-24 06:44:00+00:00,147.0,10.0,160.0,11.87,12.25,47.59359,-54.27349
2022-12-24 06:54:00+00:00,157.0,9.11,158.0,9.97,12.25,47.59359,-54.27349
2022-12-24 07:04:00+00:00,151.0,6.61,125.0,9.74,12.25,47.59359,-54.27349
2022-12-24 07:14:00+00:00,160.0,7.08,157.0,8.58,12.25,47.59359,-54.27349
2022-12-24 07:24:00+00:00,148.0,9.28,142.0,10.37,12.25,47.59359,-54.27349
2022-12-24 07:34:00+00:00,164.0,10.33,160.0,11.5,12.25,47.59359,-54.27349
2022-12-24 07:44:00+00:00,156.0,8.81,161.0,10.66,12.25,47.59359,-54.27349
2022-12-24 07:54:00+00:00,151.0,9.83,155.0,11.68,12.25,47.59359,-54.27349
2022-12-24 08:04:00+00:00,156.0,10.27,157.0,11.57,12.25,47.59359,-54.27349
2022-12-24 08:14:00+00:00,145.0,7.71,138.0,9.16,12.25,47.59359,-54.27349
2022-12-24 08:24:00+00:00,140.0,9.1,136.0,11.37,12.25,47.59359,-54.27349
2022-12-24 08:34:00+00:00,137.0,8.69,126.0,10.9,12.25,47.59359,-54.27349
2022-12-24 08:44:00+00:00,149.0,9.18,137.0,12.15,12.25,47.59359,-54.27349
2022-12-24 08:54:00+00:00,146.0,8.65,138.0,10.63,12.25,47.59359,-54.27349
2022-12-24 09:04:00+00:00,143.0,7.45,124.0,9.75,12.25,47.59359,-54.27349
2022-12-24 09:14:00+00:00,143.0,8.11,134.0,10.57,12.25,47.59359,-54.27349
2022-12-24 09:24:00+00:00,142.0,8.85,135.0,11.57,12.25,47.59359,-54.27349
2022-12-24 09:34:00+00:00,141.0,11.96,146.0,13.44,12.25,47.59359,-54.27349
2022-12-24 09:44:00+00:00,122.0,9.93,117.0,11.4,12.25,47.59359,-54.27349
2022-12-24 09:54:00+00:00,135.0,10.43,131.0,12.77,12.25,47.59359,-54.27349
2022-12-24 10:04:00+00:00,131.0,6.65,112.0,10.13,12.25,47.59359,-54.27349
2022-12-24 10:14:00+00:00,134.0,4.51,124.0,6.49,12.25,47.59359,-54.27349
2022-12-24 10:24:00+00:00,195.0,0.65,102.0,3.55,12.25,47.59359,-54.27349
2022-12-24 10:34:00+00:00,154.0,3.87,137.0,5.74,12.25,47.59359,-54.27349
2022-12-24 10:44:00+00:00,148.0,4.09,145.0,6.46,12.25,47.59359,-54.27349
2022-12-24 10:54:00+00:00,105.0,6.88,117.0,11.31,12.25,47.59359,-54.27349
2022-12-24 11:04:00+00:00,118.0,8.45,118.0,11.46,12.25,47.59359,-54.27349
2022-12-24 11:14:00+00:00,159.0,6.35,149.0,7.66,12.17,47.59359,-54.27349
2022-12-24 11:24:00+00:00,123.0,5.04,126.0,6.99,12.17,47.59359,-54.27349
2022-12-24 11:34:00+00:00,92.0,6.96,113.0,10.58,12.17,47.59359,-54.27349
2022-12-24 11:44:00+00:00,117.0,9.51,121.0,11.48,12.17,47.59359,-54.27349
2022-12-24 11:54:00+00:00,123.0,1.58,124.0,4.67,12.17,47.59359,-54.27349
2022-12-24 12:04:00+00:00,187.0,3.08,184.0,4.72,12.17,47.59359,-54.27349
2022-12-24 12:14:00+00:00,147.0,4.85,142.0,5.91,12.17,47.59359,-54.27349
2022-12-24 12:24:00+00:00,137.0,9.86,134.0,11.89,12.17,47.59359,-54.27349
2022-12-24 12:34:00+00:00,143.0,12.48,145.0,14.06,12.17,47.59359,-54.27349
2022-12-24 12:44:00+00:00,134.0,10.26,136.0,11.47,12.17,47.59359,-54.27349
2022-12-24 12:54:00+00:00,134.0,10.33,138.0,11.27,12.17,47.59359,-54.27349
2022-12-24 13:04:00+00:00,128.0,9.46,136.0,10.98,12.17,47.59359,-54.27349
2022-12-24 13:14:00+00:00,131.0,11.27,130.0,14.34,12.25,47.59359,-54.27349
2022-12-24 13:24:00+00:00,131.0,11.42,126.0,16.46,12.25,47.59359,-54.27349
2022-12-24 13:34:00+00:00,136.0,11.65,122.0,16.88,12.25,47.59359,-54.27349
2022-12-24 13:44:00+00:00,135.0,10.49,139.0,11.93,12.25,47.59359,-54.27349
2022-12-24 13:54:00+00:00,137.0,10.8,147.0,13.66,12.25,47.59359,-54.27349
2022-12-24 14:04:00+00:00,134.0,10.3,143.0,12.72,12.25,47.59359,-54.27349
2022-12-24 14:14:00+00:00,135.0,10.53,140.0,12.38,12.33,47.59359,-54.27349
2022-12-24 14:24:00+00:00,137.0,10.95,145.0,13.26,12.33,47.59359,-54.27349
2022-12-24 14:34:00+00:00,140.0,11.22,135.0,15.31,12.33,47.59359,-54.27349
2022-12-24 14:44:00+00:00,135.0,10.62,126.0,14.38,12.33,47.59359,-54.27349
2022-12-24 14:54:00+00:00,130.0,11.36,114.0,16.3,12.33,47.59359,-54.27349
2022-12-24 15:04:00+00:00,134.0,10.43,133.0,12.97,12.33,47.59359,-54.27349
2022-12-24 15:14:00+00:00,124.0,9.58,123.0,11.74,12.25,47.59359,-54.27349
2022-12-24 15:24:00+00:00,123.0,9.41,123.0,12.32,12.25,47.59359,-54.27349
2022-12-24 15:34:00+00:00,131.0,9.17,127.0,12.17,12.25,47.59359,-54.27349
2022-12-24 15:44:00+00:00,110.0,9.04,102.0,10.55,12.25,47.59359,-54.27349
2022-12-24 15:54:00+00:00,111.0,8.05,117.0,10.78,12.25,47.59359,-54.27349
2022-12-24 16:04:00+00:00,128.0,9.91,126.0,14.0,12.25,47.59359,-54.27349
2022-12-24 16:14:00+00:00,123.0,9.05,129.0,10.68,12.25,47.59359,-54.27349
2022-12-24 16:24:00+00:00,132.0,10.1,139.0,12.21,12.25,47.59359,-54.27349
2022-12-24 16:34:00+00:00,111.0,6.52,112.0,10.57,12.25,47.59359,-54.27349
2022-12-24 16:44:00+00:00,115.0,5.24,99.0,10.24,12.25,47.59359,-54.27349
2022-12-24 16:54:00+00:00,140.0,1.71,131.0,4.76,12.25,47.59359,-54.27349
2022-12-24 17:04:00+00:00,121.0,1.55,107.0,5.7,12.25,47.59359,-54.27349
2022-12-24 17:14:01+00:00,235.0,0.75,117.0,4.46,12.17,47.59359,-54.27349
2022-12-24 17:24:01+00:00,280.0,1.79,304.0,3.22,12.17,47.59359,-54.27349
2022-12-24 17:34:01+00:00,128.0,3.51,127.0,5.1,12.17,47.59359,-54.27349
2022-12-24 17:44:01+00:00,109.0,3.96,115.0,6.46,12.17,47.59359,-54.27349
2022-12-24 17:54:01+00:00,130.0,7.01,122.0,8.6,12.17,47.59359,-54.27349
2022-12-24 18:04:01+00:00,144.0,9.66,145.0,13.1,12.17,47.59359,-54.27349
2022-12-24 19:14:01+00:00,170.0,8.95,163.0,12.11,12.17,47.59359,-54.27349
2022-12-24 19:24:01+00:00,134.0,2.05,165.0,6.53,12.17,47.59359,-54.27349
2022-12-24 19:34:01+00:00,328.0,2.03,298.0,5.24,12.17,47.59359,-54.27349
2022-12-24 19:44:01+00:00,138.0,3.02,126.0,6.62,12.17,47.59359,-54.27349
2022-12-24 19:54:01+00:00,149.0,4.78,147.0,6.66,12.17,47.59359,-54.27349
2022-12-24 20:04:01+00:00,155.0,7.13,147.0,10.77,12.17,47.59359,-54.27349
2022-12-24 20:14:00+00:00,158.0,2.42,153.0,3.01,12.17,47.59359,-54.27349
2022-12-24 20:24:00+00:00,176.0,2.7,152.0,5.6,12.17,47.59359,-54.27349
2022-12-24 20:34:00+00:00,201.0,4.96,177.0,6.52,12.17,47.59359,-54.27349
2022-12-24 20:44:00+00:00,181.0,5.71,179.0,6.99,12.17,47.59359,-54.27349
2022-12-24 20:54:00+00:00,162.0,6.16,142.0,7.97,12.17,47.59359,-54.27349
2022-12-24 21:04:00+00:00,177.0,6.38,178.0,8.18,12.17,47.59359,-54.27349
2022-12-24 21:14:00+00:00,179.0,9.99,185.0,12.15,12.17,47.59359,-54.27349
2022-12-24 21:24:00+00:00,206.0,11.07,208.0,12.67,12.17,47.59359,-54.27349
2022-12-24 21:34:00+00:00,192.0,10.05,202.0,12.65,12.17,47.59359,-54.27349
2022-12-24 21:44:00+00:00,180.0,9.39,178.0,10.68,12.17,47.59359,-54.27349
2022-12-24 21:54:00+00:00,221.0,7.83,222.0,8.71,12.17,47.59359,-54.27349
2022-12-24 22:04:00+00:00,196.0,7.74,214.0,9.02,12.17,47.59359,-54.27349
2022-12-24 22:14:01+00:00,212.0,10.15,210.0,11.16,12.17,47.59359,-54.27349
2022-12-24 22:24:01+00:00,182.0,7.66,206.0,9.23,12.17,47.59359,-54.27349
2022-12-24 22:34:01+00:00,207.0,7.69,215.0,9.41,12.17,47.59359,-54.27349
2022-12-24 22:44:01+00:00,228.0,7.49,228.0,8.1,12.17,47.59359,-54.27349
2022-12-24 22:54:01+00:00,217.0,7.77,209.0,9.28,12.17,47.59359,-54.27349
2022-12-24 23:04:01+00:00,233.0,6.52,238.0,7.04,12.17,47.59359,-54.27349
2022-12-24 23:14:00+00:00,238.0,6.68,236.0,7.65,12.17,47.59359,-54.27349
2022-12-24 23:24:00+00:00,241.0,5.8,242.0,5.85,12.17,47.59359,-54.27349
2022-12-24 23:34:00+00:00,239.0,6.17,240.0,6.19,12.17,47.59359,-54.27349
2022-12-24 23:44:00+00:00,315.0,0.01,229.0,0.0,12.17,47.59359,-54.27349
2022-12-24 23:54:00+00:00,223.0,4.79,224.0,5.19,12.17,47.59359,-54.27349
